Regional Weather Roundup
Issued by NWS New Orleans/Baton Rouge, LA

Home | Current Version | Previous Version | Text Only | Print | Product List | Glossary On
Versions: 1 2 3 4 5 6 7 8 9 10 11 12 13 14 15 16 17 18 19 20 21 22 23 24 25 26 27 28 29 30 31 32 33 34 35 36 37 38 39 40 41 42 43 44 45 46 47 48 49 50
833
ASUS44 KLIX 190110
RWRLIX
NEW ORLEANS REGIONAL WEATHER ROUNDUP
NATIONAL WEATHER SERVICE NEW ORLEANS LA
800 PM CDT FRI APR 18 2014

NOTE: "FAIR" INDICATES FEW OR NO CLOUDS BELOW 12,000 FEET WITH NO
      SIGNIFICANT WEATHER AND/OR OBSTRUCTIONS TO VISIBILITY.
      SKY/WX - SKY CONDITION AND SIGNIFICANT WEATHER.
      TMP - AIR TEMPERATURE.     DP    - DEWPOINT TEMPERATURE.
      RH  - RELATIVE HUMIDITY.   PRES  - PRESSURE.
      HI  - HEAT INDEX.          WCI   - WIND CHILL INDEX.

*  THESE STATIONS ARE NOT NWS OR FAA STATIONS AND ARE NOT UNDER
   NWS QUALITY CONTROL.

LAZ038-040-048-061>063-065>067-069-190200-
SOUTHEAST LOUISIANA

CITY           SKY/WX    TMP DP  RH WIND       PRES   REMARKS
N.O. AUDUBON     N/A     67  56  66 MISG        N/A
N.O. INTL ARPT PTCLDY    65  57  75 NE12      30.08R
N.O. LAKEFRONT CLEAR     65  58  78 NE21      30.09R
N.O. DOWNTOWN*   N/A     66  52  59 NE8       30.08R
SLIDELL        CLEAR     62  54  74 N7        30.08R
BATON ROUGE    CLEAR     65  60  84 CALM      30.08R
BOOTHVILLE     CLEAR     63  57  81 N9G18     30.07R
BELLE CHASSE   PTCLDY    63  55  75 NE9       30.07R
BOGALUSA*        N/A     64  55  71 NE5       30.11R
GALLIANO*      CLEAR     67  58  72 N10G16    30.07R
NEW ROADS*       N/A     64  62  91 W9        30.09R
GONZALES*        N/A     67  58  72 CALM      30.07R
HAMMOND*       CLEAR     66  55  68 NE3       30.10R
HOUMA*           N/A     67  56  66 NE7       30.07R
PORT FOURCHON* CLEAR     66  59  77 NE16G24   30.07S

$$

MSZ070-080>082-190200-
SOUTHERN MISSISSIPPI

CITY           SKY/WX    TMP DP  RH WIND       PRES   REMARKS
MCCOMB         CLEAR     66  54  65 CALM      30.10R
GULFPORT       MOCLDY    64  55  72 N10       30.08R
BILOXI         MOCLDY    63  56  78 NE13      30.08R
PASCAGOULA     CLOUDY    61  55  81 N12       30.08R

$$

COASTAL OBSERVATIONS
LAKE AND NEARSHORE STATIONS

STATION/POSITION TIME  TEMP    WIND        PRES    WAVE
                       AIR SEA DIR/SP/G            HT/PER
                 (UTC) (F)     (DEG/KT/KT) (MB)    (FT/S)
PASCAGOULA       0100   62     360/ 12/ 17 1017.5
WAVELAND YACHT   0100   62 68  360/ 11/ 14 1017.7
GRAND ISLE       0100   65 69   40/ 13/ 20 1018.4
SOUTHWEST PASS   0100   64 58   10/ 16/ 20 1018.0
NEW CANAL        0100   65 65   60/ 14/ 17 1018.3
SHELL BEACH      0100   63 63   20/ 19/ 21 1018.3

OFFSHORE STATIONS

STATION/POSITION TIME  TEMP    WIND        PRES    WAVE
                       AIR SEA DIR/SP/G            HT/PER
                 (UTC) (F)     (DEG/KT/KT) (MB)    (FT/S)
64 S DAUPHIN ISL 0004   63 71  360/ 25/ 29 1016.7

$$




USA.gov is the U.S. government's official web portal to all federal, state and local government web resources and services.